Overview Statistics Trail Chart Weather Telemetry Raw packets
 

This is the latest recevied weather packets stored in our database for station/object VK4TW-13. If no packets are shown the sender has not sent any weather packets the latest 10 day(s).

<< 6 7 8 9 10 11 12 >>
Time Temp. Humidity Pressure Rain* Wind** Luminosity Snow
1788570833 28.89° C 100% 1020 hPa 0 mm - - -
1788570232 28.89° C 100% 1020.3 hPa 0 mm - - -
1788569631 28.33° C 100% 1020.5 hPa 0 mm - - -
1788569030 28.33° C 100% 1020.6 hPa 0 mm - - -
1788568429 27.78° C 100% 1020.8 hPa 0 mm - - -
1788567828 27.22° C 100% 1020.9 hPa 0 mm - - -
1788567262 27.22° C 100% 1021.1 hPa 0 mm - - -
1788566626 26.67° C 100% 1021.3 hPa 0 mm - - -
1788566025 26.11° C 100% 1021.4 hPa 0 mm - - -
1788565424 26.11° C 100% 1021.4 hPa 0 mm - - -
1788564823 26.11° C 100% 1021.6 hPa 0 mm - - -
1788564223 25.56° C 100% 1021.5 hPa 0 mm - - -
1788563622 25.56° C 100% 1021.6 hPa 0 mm - - -
1788563021 25° C 100% 1021.6 hPa 0 mm - - -
1788562420 24.44° C 100% 1021.6 hPa 0 mm - - -
1788561819 23.89° C 100% 1021.6 hPa 0 mm - - -
1788561218 23.33° C 100% 1021.5 hPa 0 mm - - -
1788560617 23.33° C 100% 1021.6 hPa 0 mm - - -
1788560016 22.78° C 100% 1021.5 hPa 0 mm - - -
1788559529 22.22° C 100% 1021.6 hPa 0 mm - - -
1788559416 22.22° C 100% 1021.6 hPa 0 mm - - -
1788558816 21.11° C 100% 1021.7 hPa 0 mm - - -
1788558214 20.56° C 100% 1021.7 hPa 0 mm - - -
1788557612 20° C 100% 1021.6 hPa 0 mm - - -
1788557013 19.44° C 100% 1021.6 hPa 0 mm - - -

* Rain since midnight (hover to see other rain measurements)
** Current wind speed in m/s (hover to see current wind gust speed)